Location: Krasnoyarskiy Pitomnik
(51.1333°N, 71.6167°E)
Time: 10:27:45
(UTC+00:00)

Altair - Pass Details

Date: 16 April 2024
Orbit: 1502 x 1682 km, 47.2° (Epoch: 23 May)

Event Time Altitude Azimuth Distance (km) Brightness Sun altitude
Rises 19:20:05 0° 277° (W) 4,842 10.2 -28.3°
Reaches altitude 10° 19:23:17 10° 274° (W) 3,831 9.6 -28.3°
Maximum altitude 19:32:47 63° 197° (SSW) 1,722 7.4 -28.2°
Drops below altitude 10° 19:41:56 10° 120° (ESE) 3,691 9.3 -28.0°
Sets 19:44:57 0° 117° (ESE) 4,656 9.9 -28.0°
